Flag for Rwanda Weather past 2 weeks in Gitarama, Rwanda

Now
86 °F

Scattered clouds.


Feels Like: 84 °F
Forecast: 62 / 80 °F
Wind: 8 mph from South

Location: Kigali Airport

Current Time: Aug 22, 2014 at 3:47:51 PM

Latest Report: Aug 22, 2014 at 3:30 PM


Visibility: N/A

Pressure: 30.01 "Hg

Humidity: 33%

Dew point: 54 °F

Location of GitaramaLocation

Historic Weather in Gitarama — Graph

°F

Gitarama temperature yesterday

Maximum temperature yesterday: 82 °F (at 2:30 PM)
Minimum temperature yesterday: 66 °F (at 2:00 AM)
Average temperature yesterday: 77 °F

Past Weeks' High & Low Weather Summary

 TemperatureHumidityPressure
High86 °F (Aug 22, 2:00 PM)100% (Aug 11, 1:00 AM)30.24 "Hg (Aug 11, 1:00 AM)
Low61 °F (Aug 11, 3:30 AM)31% (Aug 22, 2:00 PM)30.01 "Hg (Aug 11, 3:30 PM)
Average72 °F71%30.14 "Hg
* Reported Aug 7 3:00 PM — Aug 22 3:00 PM, Gitarama, Weather by CustomWeather, © 2014

Note: Actual official high and low records may vary slightly from our data, if they occured in-between our weather recording intervals... More about our weather records

Advertising

Gitarama weather history for previous 24 hours

 ConditionsComfort  
Time TempWeatherWind HumidityBarometerVisibility
3:00 PM
Aug 22
84 °FScattered clouds.3 mph35%30.01 "HgN/A
2:30 PM86 °FScattered clouds.7 mph33%30.04 "HgN/A
2:00 PM86 °FScattered clouds.6 mph31%30.04 "HgN/A
1:30 PM84 °FScattered clouds.7 mph35%30.07 "HgN/A
1:00 PM84 °FScattered clouds.6 mph37%30.09 "HgN/A
12:00 PM82 °FScattered clouds.8 mph42%30.12 "HgN/A
11:30 AM81 °FScattered clouds.12 mph42%30.12 "HgN/A
11:00 AM81 °FScattered clouds.7 mph45%30.15 "HgN/A
10:30 AM81 °FScattered clouds.7 mph45%30.15 "HgN/A
10:00 AM73 °FScattered clouds.7 mph61%30.18 "HgN/A
9:30 AM73 °FScattered clouds.7 mph65%30.18 "HgN/A
9:00 AM70 °FScattered clouds.5 mph73%30.18 "HgN/A
8:30 AM70 °FBroken clouds.5 mph73%30.18 "HgN/A
8:00 AM68 °FBroken clouds.5 mph73%30.15 "HgN/A
3:00 AM68 °FPassing clouds.3 mph73%30.07 "HgN/A
2:30 AM68 °FPassing clouds.3 mph73%30.07 "HgN/A
2:00 AM68 °FPassing clouds.6 mph73%30.07 "HgN/A
1:30 AM68 °FPassing clouds.6 mph73%30.07 "HgN/A
1:00 AM70 °FPassing clouds.6 mph69%30.09 "HgN/A
12:30 AM70 °FPassing clouds.5 mph69%30.09 "HgN/A
12:00 AM70 °FPassing clouds.7 mph69%30.12 "HgN/A
11:30 PM
Aug 21
70 °FPartly cloudy.7 mph69%30.12 "HgN/A
11:00 PM70 °FPartly cloudy.5 mph69%30.12 "HgN/A
10:30 PM70 °FPartly cloudy.7 mph69%30.12 "HgN/A
10:00 PM72 °FPartly cloudy.5 mph69%30.12 "HgN/A
9:30 PM73 °FPartly cloudy.9 mph65%30.12 "HgN/A
9:00 PM75 °FPartly cloudy.No wind54%30.12 "HgN/A
8:30 PM77 °FPartly cloudy.3 mph51%30.12 "HgN/A
8:00 PM77 °FLight rain. Passing clouds.3 mph51%30.09 "HgN/A
7:30 PM79 °FLight rain. Passing clouds.7 mph45%30.09 "HgN/A
7:00 PM77 °FLight rain. Passing clouds.5 mph47%30.07 "HgN/A
6:30 PM77 °FPassing clouds.3 mph47%30.07 "HgN/A
6:00 PM79 °FScattered clouds.7 mph45%30.04 "HgN/A
5:30 PM79 °FScattered clouds.7 mph45%30.04 "HgN/A
5:00 PM81 °FScattered clouds.7 mph42%30.04 "HgN/A
4:30 PM82 °FScattered clouds.7 mph40%30.04 "HgN/A
4:00 PM82 °FScattered clouds.7 mph40%30.04 "HgN/A
3:30 PM82 °FPartly sunny.9 mph42%30.04 "HgN/A
3:00 PM82 °FPartly sunny.9 mph42%30.04 "HgN/A
Weather by CustomWeather, © 2014

See weather overviewHow to use our weather pages